GW4771 Weather Reports


time (UTC)temp
C
wind
direction
speed
KPH
gust
KPH
rain 1hr
cm
rain 24hr
cm
rain mn
cm
humidity
%
barometer
mb
20260510101024 9 243 1.6 3.2 0.00 0.23 0.00 97 1009.3
20260510100024 10 245 0.0 1.6 0.00 0.23 0.00 96 1009.2
20260510095045 10 255 0.0 1.6 0.00 0.23 0.00 96 1008.8
20260510094025 10 171 0.0 1.6 0.00 0.23 0.00 96 1008.6
20260510093025 10 280 0.0 1.6 0.00 0.23 0.00 95 1008.5
20260510092026 10 184 0.0 1.6 0.00 0.23 0.00 95 1008.4
20260510091025 10 232 1.6 3.2 0.00 0.23 0.00 95 1008.3
20260510090026 10 230 1.6 4.8 0.00 0.23 0.00 95 1008.1
20260510085046 10 229 1.6 3.2 0.00 0.23 0.00 95 1007.9
20260510084026 10 230 1.6 3.2 0.00 0.23 0.00 94 1008.1
20260510083026 10 207 1.6 3.2 0.00 0.23 0.00 95 1007.9
20260510082026 10 219 3.2 4.8 0.00 0.23 0.00 95 1007.7
20260510081106 10 218 3.2 3.2 0.00 0.23 0.00 96 1007.6
20260510080026 10 196 1.6 3.2 0.00 0.23 0.00 96 1007.9
20260510075027 10 206 3.2 4.8 0.00 0.23 0.00 96 1008.4
20260510074027 10 194 1.6 3.2 0.00 0.23 0.00 97 1008.7
20260510073027 10 240 1.6 3.2 0.00 0.23 0.00 96 1009.1
20260510072027 10 253 1.6 3.2 0.00 0.23 0.00 95 1009.1
20260510071027 10 240 0.0 1.6 0.00 0.23 0.00 95 1009.2
20260510070027 10 220 0.0 1.6 0.00 0.23 0.00 95 1008.9
20260510065047 10 232 0.0 3.2 0.00 0.23 0.00 96 1008.7
20260510064027 10 231 1.6 3.2 0.00 0.23 0.00 96 1008.7
20260510063027 10 220 0.0 1.6 0.00 0.23 0.00 96 1008.6
20260510062028 10 238 0.0 1.6 0.00 0.23 0.00 97 1008.8
20260510061029 10 248 1.6 3.2 0.00 0.23 0.00 96 1008.6
20260510060028 10 229 0.0 1.6 0.00 0.23 0.00 95 1008.5
20260510055028 10 236 0.0 1.6 0.00 0.23 0.00 95 1008.4
20260510054028 10 207 0.0 1.6 0.00 0.23 0.00 94 1008.4
20260510053029 10 175 0.0 1.6 0.00 0.23 0.00 94 1008.4
20260510052029 10 255 1.6 4.8 0.00 0.23 0.00 93 1008.4
20260510051049 10 223 1.6 3.2 0.00 0.23 0.00 92 1008.6
20260510050029 10 252 1.6 4.8 0.00 0.23 0.00 90 1008.3
20260510045030 10 218 1.6 4.8 0.00 0.23 0.00 91 1008.2
20260510044029 11 224 1.6 3.2 0.00 0.23 0.00 90 1008.2
20260510043030 10 186 4.8 8.0 0.00 0.23 0.00 96 1008.0
20260510042030 10 205 1.6 4.8 0.00 0.23 0.00 99 1008.4
20260510041151 9 217 0.0 1.6 0.00 0.23 0.00 99 1008.6
20260510040030 9 257 0.0 1.6 0.00 0.23 0.00 99 1008.5
20260510035030 9 237 0.0 3.2 0.00 0.23 0.23 99 1008.4
20260510034030 9 234 0.0 1.6 0.00 0.23 0.23 99 1008.3
20260510033030 9 239 0.0 1.6 0.00 0.23 0.23 98 1008.5
20260510032050 9 255 0.0 0.0 0.00 0.23 0.23 98 1008.6
20260510031051 9 248 0.0 1.6 0.00 0.23 0.23 98 1008.6
20260510030030 9 239 0.0 1.6 0.00 0.23 0.23 98 1008.6
20260510025031 9 228 0.0 1.6 0.00 0.23 0.23 98 1008.6
20260510024031 9 0.0 0.0 0.00 0.23 0.23 98 1008.6
20260510023051 9 231 0.0 1.6 0.00 0.23 0.23 98 1008.6
20260510022031 9 248 0.0 3.2 0.00 0.23 0.23 98 1008.6
20260510021031 9 244 0.0 1.6 0.00 0.23 0.23 98 1008.4
20260510020032 10 241 0.0 1.6 0.00 0.23 0.23 98 1008.3
20260510015032 10 250 1.6 3.2 0.00 0.23 0.23 98 1008.6
20260510014017 10 235 1.6 3.2 0.00 0.23 0.23 98 1008.6
20260510013032 10 247 1.6 3.2 0.00 0.23 0.23 98 1008.7
20260510012032 10 205 0.0 1.6 0.00 0.23 0.23 98 1008.8
20260510011032 10 186 0.0 1.6 0.00 0.23 0.23 98 1008.8
20260510010032 10 180 0.0 1.6 0.00 0.23 0.23 98 1008.9
20260510005033 10 281 0.0 1.6 0.00 0.23 0.23 98 1008.8
20260510004038 10 232 0.0 1.6 0.00 0.23 0.23 98 1008.6
20260510003118 10 245 0.0 1.6 0.00 0.23 0.23 97 1008.5
20260510002019 10 223 0.0 0.0 0.00 0.23 0.23 97 1008.3
20260510001018 10 214 1.6 3.2 0.00 0.23 0.23 97 1008.3
20260510000018 10 238 0.0 3.2 0.00 0.23 0.23 97 1008.3
20260509235018 10 308 0.0 0.0 0.00 0.23 0.23 97 1008.1
20260509234019 10 203 0.0 1.6 0.00 0.23 0.23 97 1008.0
20260509233019 10 170 0.0 1.6 0.00 0.23 0.23 97 1007.9
20260509232019 10 262 0.0 1.6 0.00 0.23 0.23 97 1007.8
20260509231019 10 235 0.0 1.6 0.00 0.23 0.23 97 1007.8
20260509230039 10 229 0.0 1.6 0.00 0.23 0.23 97 1007.8
20260509225019 10 250 0.0 1.6 0.00 0.23 0.23 97 1007.8
20260509224019 10 266 0.0 0.0 0.00 0.23 0.23 97 1007.9
20260509223019 10 0.0 0.0 0.00 0.23 0.23 97 1007.9
20260509222020 10 219 0.0 1.6 0.00 0.23 0.23 97 1008.0
20260509221020 10 180 0.0 1.6 0.00 0.23 0.23 97 1008.1
20260509220020 10 44 0.0 1.6 0.00 0.23 0.23 97 1008.1
20260509215020 10 208 0.0 1.6 0.00 0.23 0.23 97 1008.2
20260509214020 10 233 0.0 1.6 0.00 0.23 0.23 97 1008.3
20260509213020 10 0.0 0.0 0.00 0.23 0.23 97 1008.4
20260509212040 10 0.0 0.0 0.03 0.23 0.23 97 1008.7
20260509211020 10 0.0 0.0 0.03 0.23 0.23 96 1008.7
20260509210021 10 287 1.6 3.2 0.03 0.23 0.23 96 1008.9
20260509205021 10 250 0.0 1.6 0.03 0.23 0.23 96 1008.9
20260509204040 10 234 0.0 1.6 0.03 0.23 0.23 96 1009.0
20260509203021 10 244 0.0 1.6 0.03 0.23 0.23 96 1009.1
20260509202021 10 156 0.0 1.6 0.03 0.23 0.23 96 1009.1
20260509201021 10 0.0 0.0 0.05 0.20 0.20 96 1009.2
20260509200022 10 185 1.6 3.2 0.05 0.20 0.20 95 1009.2
20260509195022 10 201 0.0 1.6 0.05 0.20 0.20 96 1009.2
20260509194021 10 189 1.6 3.2 0.05 0.20 0.20 96 1009.3
20260509193022 9 267 0.0 1.6 0.05 0.20 0.20 96 1009.4
20260509192022 9 262 1.6 3.2 0.03 0.18 0.18 95 1009.4
20260509191022 9 242 1.6 3.2 0.03 0.18 0.18 95 1009.5
20260509190023 10 252 1.6 3.2 0.03 0.15 0.15 95 1009.6
20260509185022 10 269 1.6 3.2 0.03 0.15 0.15 95 1009.5
20260509184022 10 2 0.0 0.0 0.00 0.15 0.15 94 1009.6
20260509183023 10 0.0 0.0 0.00 0.15 0.15 94 1009.7
20260509182023 9 0.0 0.0 0.03 0.15 0.15 94 1009.8
20260509181023 9 27 0.0 1.6 0.03 0.15 0.15 94 1009.7
20260509180023 9 21 0.0 1.6 0.05 0.15 0.15 94 1009.7
20260509175023 9 0.0 0.0 0.05 0.15 0.15 94 1009.7
20260509174023 9 54 0.0 1.6 0.05 0.15 0.15 94 1009.9
20260509173043 8 68 0.0 3.2 0.08 0.13 0.13 93 1010.0
20260509172024 8 72 1.6 3.2 0.08 0.13 0.13 93 1010.3
20260509171024 8 112 0.0 0.0 0.08 0.13 0.13 93 1010.4
20260509170025 8 56 0.0 1.6 0.08 0.10 0.10 92 1010.5
20260509165043 8 83 0.0 1.6 0.10 0.10 0.10 92 1010.6
20260509164024 8 64 0.0 1.6 0.08 0.08 0.08 91 1010.7
20260509163024 8 71 0.0 1.6 0.08 0.08 0.08 91 1010.9
20260509162024 8 51 0.0 1.6 0.05 0.05 0.05 90 1011.0
20260509161044 8 50 0.0 1.6 0.05 0.05 0.05 89 1011.1
20260509160020 8 61 0.0 1.6 0.03 0.03 0.03 88 1011.2
20260509155020 8 64 0.0 1.6 0.00 0.00 0.00 85 1011.4
20260509154020 8 270 0.0 1.6 0.00 0.00 0.00 85 1011.6
20260509153020 8 188 0.0 1.6 0.00 0.00 0.00 80 1011.8
20260509152020 8 162 0.0 0.0 0.00 0.00 0.00 78 1011.7
20260509151020 8 55 1.6 3.2 0.00 0.00 0.00 80 1011.7
20260509150018 8 65 0.0 3.2 0.00 0.00 0.00 78 1011.7
20260509145017 8 164 0.0 1.6 0.00 0.00 0.00 78 1011.8
20260509144018 8 152 0.0 1.6 0.00 0.00 0.00 74 1011.9
20260509143021 8 53 0.0 1.6 0.00 0.00 0.00 73 1011.9
20260509142018 8 63 0.0 3.2 0.00 0.00 0.00 68 1011.9
20260509141018 8 63 0.0 3.2 0.00 0.00 0.00 66 1011.7
20260509140018 8 55 0.0 1.6 0.00 0.00 0.00 62 1011.6
20260509135018 8 206 0.0 1.6 0.00 0.00 0.00 62 1011.3
20260509134102 8 205 0.0 1.6 0.00 0.00 0.00 63 1011.4
20260509133019 8 75 0.0 1.6 0.00 0.00 0.00 62 1011.4
20260509132019 8 63 1.6 3.2 0.00 0.00 0.00 62 1011.3
20260509131039 7 60 1.6 3.2 0.00 0.00 0.00 63 1011.3
20260509130019 7 58 1.6 3.2 0.00 0.00 0.00 65 1011.4
20260509125019 7 65 1.6 3.2 0.00 0.00 0.00 66 1011.6
20260509124020 7 66 3.2 4.8 0.00 0.00 0.00 64 1011.8
20260509123019 6 69 0.0 3.2 0.00 0.00 0.00 68 1011.9
20260509122020 6 74 0.0 3.2 0.00 0.00 0.00 69 1012.0
20260509121019 6 56 1.6 3.2 0.00 0.00 0.00 73 1012.0
20260509120020 6 67 3.2 3.2 0.00 0.00 0.00 67 1012.1
20260509115057 6 105 0.0 3.2 0.00 0.00 0.00 74 1012.1
20260509114020 5 72 1.6 3.2 0.00 0.00 0.00 79 1012.0
20260509113040 5 60 1.6 3.2 0.00 0.00 0.00 79 1012.0
20260509112020 4 66 1.6 3.2 0.00 0.00 0.00 86 1012.4
20260509111017 3 282 0.0 1.6 0.00 0.00 0.00 88 1012.6
20260509110018 3 36 0.0 3.2 0.00 0.00 0.00 89 1012.6
20260509105018 3 51 0.0 1.6 0.00 0.00 0.00 90 1012.6
20260509104018 3 50 0.0 3.2 0.00 0.00 0.00 91 1012.6
20260509103021 2 40 0.0 1.6 0.00 0.00 0.00 92 1012.6
20260509102018 2 43 1.6 3.2 0.00 0.00 0.00 92 1012.4